Location: Bremen
(53.0793°N, 8.8017°E)
Time: 11:17:27
(UTC+01:00)

S-56A Canister/Altair - Pass Details

Date: 30 November 2021
Orbit: 634 x 2499 km, 38.9° (Epoch: 25 January)

Event Time Altitude Azimuth Distance (km) Brightness Sun altitude
Rises 02:22:32 0° 228° (SW) 4,262 - -50.1°
Reaches altitude 10° 02:26:49 10° 211° (SSW) 2,927 - -49.6°
Maximum altitude 02:31:03 17° 173° (S) 2,100 - -49.1°
Drops below altitude 10° 02:34:34 10° 132° (SE) 2,342 - -48.7°
Sets 02:37:28 0° 111° (ESE) 3,100 - -48.3°
